Miscellaneous Local Product
Issued by NWS North Platte, NE

Home | Current Version | Previous Version | Text Only | Print | Product List | Glossary On
Versions: 1 2 3 4 5 6 7 8 9 10 11 12 13 14 15 16 17 18 19 20 21 22 23 24 25 26 27 28 29 30 31 32 33 34 35 36 37 38 39 40 41 42 43 44 45 46 47 48 49 50
000
AXUS43 KLBF 250810
MISLBF


WESTERN AND NORTH CENTRAL NEBRASKA HOURLY WEATHER ROUNDUP
NATIONAL WEATHER SERVICE NORTH PLATTE NE
300 AM CDT MON MAY 25 2015

***STATIONS NOT REPORTING VARIABLES SUCH AS SKY/WEATHER OR
PRESSURE ARE PROVIDED BY THE NEBRASKA DEPARTMENT OF
ROADS...RAWS...AND APRS NETWORKS...AND ARE NOT UNDER
NATIONAL WEATHER SERVICE QUALITY CONTROL***

...OBSERVATIONS IN AND NEAR THE EASTERN PANHANDLE OF NEBRASKA...

CITY           SKY/WX    TMP DP  RH WIND       PRES   REMARKS
PINE RIDGE     CLOUDY    56  53  90 NE5       29.80F
CHADRON        CLOUDY    51  49  92 SW3       29.81F
ALLIANCE       LGT RAIN  50  50 100 W7        29.78F
SIDNEY         CLOUDY    49  48  97 W3        29.81F
WHITECLAY        N/A     54  52  94 CALM        N/A
BIG SPRINGS      N/A     53  51  93 CALM        N/A
$$

...OBSERVATIONS IN NORTH CENTRAL NEBRASKA...

CITY           SKY/WX    TMP DP  RH WIND       PRES   REMARKS
VALENTINE      CLOUDY    58  56  93 E3        29.78F
THEDFORD       CLOUDY    55  52  92 SE3       29.77R
AINSWORTH      FOG       57  57 100 N3        29.76F VSB 1/4
O`NEILL        FOG       56  56  99 N5        29.77F VSB 1/4
ORD            CLOUDY    57  56  96 CALM      29.74F
BROKEN BOW     MOCLDY    53  51  93 E3        29.75F
VALENTINE NWR    N/A     56  56  99 E6          N/A
SPRINGVIEW       N/A     56  55  95 CALM        N/A
ROSE             N/A     56  56  99 N5          N/A
NEWPORT          N/A     57  56  99 E3          N/A
SARGENT          N/A     54  53  97 CALM        N/A
COMSTOCK         N/A     58  57  99 S8          N/A
EWING            N/A     56  55  96 CALM        N/A
$$

...OBSERVATIONS IN SOUTHWEST NEBRASKA AND FAR NORTHEAST COLORADO...

CITY           SKY/WX    TMP DP  RH WIND       PRES   REMARKS
WRAY           FAIR     N/A N/A N/A CALM      29.79F
IMPERIAL       CLOUDY    51  49  92 CALM      29.78F
OGALLALA       CLOUDY    53  50  91 NE3       29.79R
NORTH PLATTE   CLOUDY    53  51  93 SW7       29.78S
MCCOOK         LGT RAIN  54  53  97 W10       29.79R
LEXINGTON      MOCLDY    54  53  94 N5        29.73F
GOTHENBURG       N/A     52  49  90 CALM        N/A
CALLAWAY         N/A     51  50  96 S3          N/A
$$

...NORTH PLATTE AREA...

CITY           SKY/WX    TMP DP  RH WIND       PRES   REMARKS
AIRPORT        CLOUDY    53  51  93 SW7       29.78S
DOWNTOWN         N/A     52  50  93 CALM        N/A
$$

...SOME WEATHER OBSERVATIONS FROM AROUND THE REGION...

CITY           SKY/WX    TMP DP  RH WIND       PRES   REMARKS
DENVER         MOCLDY    44  41  89 W6        29.88S
LARAMIE        CLOUDY    40  36  86 CALM      29.92S
CHEYENNE       LGT RAIN  44  41  89 NW8       29.89F
SCOTTSBLUFF    LGT RAIN  51  50  96 SW3       29.82F
RAPID CITY     CLOUDY    52  51  97 N7        29.84S
PIERRE         CLOUDY    57  57 100 NE6       29.77F FOG
WINNER         FOG       59  57  93 NE5       29.77F VSB 1/4
SIOUX FALLS    CLOUDY    59  57  93 NW5       29.72F
OMAHA          CLOUDY    63  60  90 S6        29.76F
GRAND ISLAND   CLOUDY    61  59  93 SW9       29.78S
KANSAS CITY    LGT RAIN  62  62 100 S5        29.84S
WICHITA        MOCLDY    60  58  92 S13       29.81F
HAYS           CLOUDY    55  48  76 SE13      29.81F THUNDER
LIBERAL        PTCLDY    63  55  77 S8        29.78S
GOODLAND       CLOUDY    50  49  96 S6        29.80F
$$



USA.gov is the U.S. government's official web portal to all federal, state and local government web resources and services.